Burlington, IA

8:56 PM CDT on May 22, 2017 (GMT -0500)
Burlington Regional

Weather History for KBRL - November, 2011

Change the Weather History Date:

Sunday, November 6, 2011

  Actual Average Record
Temperature  
Mean Temperature 56 °F 47 °F  
Max Temperature 63 °F 57 °F 77 °F (1916)
Min Temperature 49 °F 38 °F 15 °F (1991)
Degree Days  
Heating Degree Days 9 18  
Month to date heating degree days 95 101  
Since 1 July heating degree days 530 495  
Cooling Degree Days 0 0  
Month to date cooling degree days 0 0  
Year to date cooling degree days 1247 1206  
Growing Degree Days 5 (Base 50)    
Moisture  
Dew Point 48 °F    
Average Humidity 75    
Maximum Humidity 86    
Minimum Humidity 64    
Precipitation  
Precipitation 0.00 in 0.09 in 0.61 in (2000)
Month to date precipitation 1.48 0.54  
Year to date precipitation 28.58 34.43  
Sea Level Pressure  
Sea Level Pressure 29.97 in    
Wind  
Wind Speed 13 mph (SSW)    
Max Wind Speed 26 mph    
Max Gust Speed 32 mph    
Visibility 10 miles    
Events      
T = Trace of Precipitation, MM = Missing Value Source: NWS Daily Summary

Daily Weather History Graph

Daily Weather History Graph

Search for Another Location

Airport or City:

Trip Planner

Search our weather history database for the weather conditions in past years. The results will help you decide how hot, cold, wet, or windy it might be!

Date:

Astronomy

Nov. 06, 2011 Rise Set
Actual Time 6:40 AM CST 4:55 PM CST
Civil Twilight 6:11 AM CST 5:23 PM CST
Nautical Twilight 5:39 AM CST 5:56 PM CST
Astronomical Twilight 5:07 AM CST 6:28 PM CST
Moon 2:40 PM CST (11/6) 2:46 AM CST (11/6)
Length of Visible Light 11h 12m
Length of Day
10h 14m
Waxing Gibbous, 86% of the Moon is Illuminated
Nov 6
Waxing Gibbous
Nov 10
Full
Nov 18
Last Quarter
Nov 25
New
Dec 2
First Quarter

Hourly Weather History & Observations

Time (CST) Temp. Dew Point Humidity Pressure Visibility Wind Dir Wind Speed Gust Speed Precip Events Conditions
12:53 AM 50.0 °F 43.0 °F 77% 29.94 in 9.0 mi South 15.0 mph 27.6 mph N/A   Clear
1:53 AM 48.9 °F 43.0 °F 80% 29.95 in 9.0 mi SSW 12.7 mph 21.9 mph N/A   Clear
1:53 AM 48.9 °F 43.0 °F 80% 29.94 in 8.0 mi South 12.7 mph - N/A   Clear
2:53 AM 50.0 °F 43.0 °F 77% 29.92 in 9.0 mi South 17.3 mph - N/A   Clear
3:53 AM 52.0 °F 44.1 °F 74% 29.91 in 10.0 mi South 13.8 mph - N/A   Overcast
4:53 AM 52.0 °F 44.1 °F 74% 29.90 in 10.0 mi South 17.3 mph 23.0 mph N/A   Partly Cloudy
5:53 AM 51.1 °F 44.1 °F 77% 29.90 in 10.0 mi South 16.1 mph 24.2 mph N/A   Clear
6:53 AM 52.0 °F 45.0 °F 77% 29.91 in 10.0 mi South 16.1 mph - N/A   Partly Cloudy
7:53 AM 54.0 °F 45.0 °F 72% 29.93 in 10.0 mi South 15.0 mph - N/A   Mostly Cloudy
8:53 AM 55.9 °F 46.9 °F 72% 29.93 in 10.0 mi South 19.6 mph - N/A   Mostly Cloudy
9:53 AM 59.0 °F 48.0 °F 67% 29.94 in 10.0 mi SSW 19.6 mph 32.2 mph N/A   Overcast
10:53 AM 60.1 °F 48.9 °F 67% 29.95 in 10.0 mi SSW 20.7 mph 32.2 mph N/A   Overcast
11:53 AM 62.1 °F 50.0 °F 65% 29.94 in 10.0 mi SSW 19.6 mph 28.8 mph N/A   Overcast
12:53 PM 62.1 °F 51.1 °F 67% 29.93 in 10.0 mi SSW 17.3 mph - N/A   Overcast
1:53 PM 62.1 °F 52.0 °F 70% 29.94 in 10.0 mi SSW 16.1 mph - N/A   Overcast
2:53 PM 62.1 °F 52.0 °F 70% 29.95 in 10.0 mi South 11.5 mph - N/A   Overcast
3:53 PM 62.1 °F 52.0 °F 70% 29.96 in 10.0 mi SSW 11.5 mph - N/A   Overcast
4:53 PM 60.1 °F 52.0 °F 75% 29.98 in 10.0 mi South 6.9 mph - N/A   Mostly Cloudy
5:53 PM 55.0 °F 51.1 °F 86% 30.01 in 10.0 mi South 5.8 mph - N/A   Scattered Clouds
6:53 PM 59.0 °F 53.1 °F 81% 30.02 in 10.0 mi SSW 9.2 mph - N/A   Mostly Cloudy
7:34 PM 57.2 °F 51.8 °F 82% 30.03 in 10.0 mi South 11.5 mph - N/A   Mostly Cloudy
7:53 PM 59.0 °F 52.0 °F 78% 30.04 in 10.0 mi SSW 9.2 mph - N/A   Overcast
8:53 PM 57.2 °F 51.8 °F 82% 30.05 in 10.0 mi SSW 6.9 mph - N/A   Overcast
9:36 PM 55.4 °F 51.8 °F 88% 30.07 in 10.0 mi SW 6.9 mph - N/A   Mostly Cloudy
9:53 PM 55.9 °F 51.1 °F 84% 30.08 in 10.0 mi SW 8.1 mph - N/A   Overcast
10:53 PM 55.9 °F 50.0 °F 80% 30.08 in 10.0 mi SSW 6.9 mph - N/A   Overcast